QPF
0.06 0.04 0.03 0.06 0.04 0.02 0.03 0.04 0.05 0.05 0.06 0.06 0.07 0.08 0.08 0.06 0.03 0.02 0.04 0.06 0.03 0.02 0.04 0.08 0.13 0.11 0.09 0.07 0.06 0.05 0.05 0.05 0.04 0.04 0.05 0.07 0.06 0.04 0.03 0.03 0.03 0.02 0.02 0.02 0.01 0.01 0.01 0.01 0.01
0.03 0.04 0.06 0.06 0.03 0.02 0.03 0.04 0.07 0.08 0.07 0.05 0.06 0.04 0.04 0.03 0.01 0.02 0.03 0.04 0.02 0.02 0.02 0.04 0.12 0.11 0.09 0.07 0.06 0.04 0.05 0.05 0.05 0.05 0.06 0.07 0.06 0.04 0.03 0.03 0.03 0.03 0.03 0.03 0.02 0.01 0.01 0.01 0.01
0.05 0.07 0.08 0.04 0.03 0.03 0.05 0.05 0.06 0.06 0.04 0.05 0.06 0.04 0.02 0.02 0.03 0.04 0.02 0.02 0.02 0.02 0.03 0.04 0.08 0.08 0.07 0.06 0.05 0.05 0.05 0.05 0.04 0.05 0.04 0.05 0.04 0.03 0.02 0.02 0.02 0.01 0.02 0.03 0.02 0.01 0.01 0.01 0.02
0.06 0.07 0.05 0.03 0.03 0.03 0.04 0.05 0.04 0.07 0.05 0.04 0.03 0.03 0.02 0.02 0.03 0.02 0.01 0.01 0.01 0.01 0.01 0.03 0.05 0.05 0.05 0.04 0.04 0.04 0.03 0.03 0.03 0.03 0.03 0.03 0.03 0.02 0.01 0.01 0.01 0.01 0.01 0.01 0.01 0.01 0.01 0.01 0.01
0.05 0.02 0.02 0.02 0.03 0.02 0.03 0.04 0.06 0.10 0.08 0.04 0.02 0.02 0.02 0.02 0.03 0.02 0.01 0.01 0.00 0.00 0.00 0.01 0.02 0.02 0.03 0.03 0.04 0.03 0.02 0.02 0.02 0.02 0.02 0.02 0.02 0.02 0.01 0.01 0.01 0.01 0.01 0.01 0.01 0.01 0.01 0.01 0.01
0.04 0.02 0.02 0.02 0.03 0.04 0.04 0.04 0.08 0.09 0.05 0.03 0.02 0.01 0.02 0.03 0.04 0.03 0.02 0.01 0.00 0.00 0.00 0.00 0.01 0.02 0.03 0.03 0.02 0.01 0.01 0.01 0.01 0.01 0.01 0.01 0.01 0.01 0.00 0.00 0.00 0.01 0.01 0.01 0.01 0.01 0.00 0.01 0.02
0.03 0.01 0.02 0.02 0.04 0.07 0.08 0.09 0.10 0.07 0.05 0.03 0.02 0.02 0.02 0.04 0.04 0.04 0.03 0.01 0.00 0.00 0.00 0.00 0.00 0.01 0.02 0.02 0.01 0.00 0.00 0.00 0.00 0.00 0.00 0.00 0.00 0.00 0.00 0.00 0.00 0.00 0.00 0.00 0.01 0.00 0.00 0.02 0.02
0.05 0.02 0.02 0.04 0.06 0.07 0.07 0.08 0.10 0.08 0.06 0.03 0.01 0.01 0.01 0.01 0.03 0.05 0.05 0.02 0.00 0.00 0.00 0.00 0.01 0.01 0.00 0.00 0.00 0.00 0.00 0.00 0.00 0.00 0.00 0.00 0.00 0.00 0.00 0.00 0.00 0.00 0.00 0.00 0.01 0.01 0.01 0.01 0.01
0.06 0.04 0.03 0.05 0.06 0.05 0.06 0.08 0.08 0.08 0.06 0.04 0.02 0.01 0.02 0.01 0.02 0.04 0.03 0.01 0.00 0.00 0.00 0.01 0.01 0.00 0.00 0.00 0.00 0.00 0.00 0.00 0.00 0.00 0.00 0.00 0.00 0.00 0.00 0.00 0.00 0.00 0.00 0.00 0.01 0.01 0.01 0.01 0.01
0.04 0.04 0.05 0.03 0.02 0.03 0.05 0.07 0.07 0.09 0.12 0.08 0.03 0.01 0.02 0.02 0.03 0.02 0.00 0.00 0.00 0.00 0.00 0.00 0.00 0.00 0.00 0.00 0.00 0.00 0.00 0.00 0.00 0.00 0.00 0.00 0.00 0.00 0.00 0.00 0.00 0.00 0.01 0.00 0.00 0.01 0.01 0.00 0.00
0.04 0.04 0.04 0.03 0.02 0.02 0.03 0.05 0.04 0.04 0.07 0.06 0.03 0.01 0.01 0.01 0.02 0.01 0.00 0.00 0.00 0.00 0.00 0.00 0.00 0.00 0.00 0.00 0.00 0.00 0.00 0.00 0.00 0.00 0.00 0.00 0.00 0.00 0.00 0.00 0.00 0.00 0.00 0.00 0.00 0.00 0.00 0.00 0.00
0.05 0.04 0.04 0.04 0.04 0.05 0.06 0.05 0.04 0.03 0.04 0.04 0.02 0.01 0.01 0.01 0.01 0.00 0.00 0.00 0.00 0.00 0.00 0.00 0.00 0.00 0.00 0.00 0.00 0.00 0.00 0.00 0.00 0.00 0.00 0.00 0.00 0.00 0.00 0.00 0.00 0.00 0.00 0.00 0.00 0.00 0.00 0.00 0.00
0.06 0.06 0.04 0.05 0.05 0.06 0.07 0.07 0.06 0.03 0.05 0.04 0.02 0.02 0.01 0.01 0.01 0.00 0.00 0.00 0.00 0.00 0.00 0.00 0.00 0.00 0.00 0.00 0.00 0.00 0.00 0.00 0.00 0.00 0.00 0.00 0.00 0.00 0.00 0.00 0.00 0.00 0.00 0.00 0.00 0.00 0.00 0.01 0.01
0.06 0.08 0.09 0.08 0.06 0.06 0.05 0.06 0.06 0.04 0.04 0.05 0.04 0.03 0.03 0.01 0.00 0.00 0.00 0.00 0.00 0.00 0.00 0.00 0.00 0.00 0.00 0.00 0.00 0.00 0.00 0.00 0.00 0.00 0.00 0.00 0.00 0.00 0.00 0.00 0.00 0.00 0.00 0.00 0.00 0.00 0.01 0.01 0.00
0.06 0.10 0.10 0.09 0.08 0.07 0.06 0.07 0.05 0.04 0.04 0.05 0.05 0.02 0.02 0.01 0.00 0.00 0.00 0.00 0.00 0.00 0.00 0.00 0.00 0.00 0.00 0.00 0.00 0.00 0.00 0.00 0.00 0.00 0.00 0.00 0.00 0.00 0.00 0.00 0.00 0.00 0.00 0.00 0.01 0.00 0.00 0.00 0.01
0.10 0.10 0.09 0.08 0.08 0.07 0.07 0.06 0.05 0.03 0.02 0.03 0.03 0.02 0.02 0.01 0.00 0.00 0.00 0.00 0.00 0.00 0.00 0.00 0.00 0.00 0.00 0.00 0.00 0.00 0.00 0.00 0.00 0.00 0.00 0.00 0.00 0.00 0.00 0.00 0.00 0.00 0.00 0.00 0.01 0.00 0.00 0.00 0.00
0.09 0.07 0.06 0.06 0.07 0.07 0.06 0.05 0.04 0.04 0.03 0.03 0.02 0.01 0.02 0.01 0.01 0.01 0.00 0.00 0.00 0.00 0.00 0.00 0.00 0.00 0.00 0.00 0.00 0.00 0.00 0.00 0.00 0.00 0.00 0.00 0.00 0.00 0.00 0.00 0.00 0.00 0.00 0.00 0.00 0.00 0.00 0.01 0.01
0.05 0.04 0.04 0.06 0.06 0.07 0.05 0.04 0.03 0.05 0.05 0.04 0.03 0.02 0.02 0.02 0.02 0.01 0.01 0.00 0.00 0.00 0.00 0.00 0.00 0.00 0.00 0.00 0.00 0.00 0.00 0.00 0.00 0.00 0.00 0.00 0.00 0.00 0.00 0.00 0.00 0.00 0.00 0.00 0.00 0.00 0.01 0.01 0.01
0.04 0.04 0.04 0.05 0.04 0.05 0.05 0.04 0.05 0.06 0.04 0.03 0.03 0.02 0.02 0.02 0.01 0.01 0.00 0.00 0.00 0.00 0.00 0.00 0.00 0.00 0.00 0.00 0.00 0.00 0.00 0.00 0.00 0.00 0.00 0.00 0.00 0.00 0.00 0.00 0.00 0.00 0.00 0.00 0.00 0.00 0.01 0.01 0.01
0.04 0.05 0.05 0.05 0.05 0.05 0.05 0.05 0.06 0.05 0.03 0.02 0.02 0.02 0.02 0.01 0.01 0.00 0.00 0.00 0.00 0.00 0.00 0.00 0.00 0.00 0.00 0.00 0.00 0.00 0.00 0.00 0.00 0.00 0.00 0.00 0.00 0.00 0.00 0.00 0.00 0.00 0.00 0.00 0.00 0.00 0.00 0.00 0.01
0.04 0.05 0.05 0.05 0.07 0.07 0.06 0.05 0.04 0.03 0.03 0.02 0.02 0.02 0.02 0.01 0.00 0.00 0.00 0.00 0.00 0.00 0.00 0.00 0.00 0.00 0.00 0.00 0.00 0.00 0.00 0.00 0.00 0.00 0.00 0.00 0.00 0.00 0.00 0.00 0.00 0.00 0.00 0.00 0.00 0.00 0.00 0.00 0.00
0.05 0.04 0.05 0.06 0.07 0.06 0.04 0.03 0.02 0.02 0.02 0.01 0.01 0.01 0.02 0.01 0.00 0.01 0.00 0.00 0.00 0.00 0.00 0.00 0.00 0.00 0.00 0.00 0.00 0.00 0.00 0.00 0.00 0.00 0.00 0.00 0.00 0.00 0.00 0.00 0.00 0.00 0.00 0.00 0.00 0.00 0.00 0.00 0.00
0.05 0.06 0.07 0.08 0.08 0.05 0.03 0.03 0.02 0.01 0.02 0.01 0.01 0.00 0.01 0.01 0.00 0.01 0.01 0.00 0.00 0.00 0.00 0.00 0.00 0.00 0.00 0.00 0.00 0.00 0.00 0.00 0.00 0.00 0.00 0.00 0.00 0.00 0.00 0.00 0.00 0.00 0.00 0.00 0.00 0.00 0.00 0.00 0.00
0.06 0.08 0.10 0.11 0.09 0.05 0.02 0.02 0.02 0.01 0.01 0.01 0.00 0.00 0.01 0.01 0.00 0.01 0.01 0.01 0.00 0.00 0.00 0.00 0.00 0.00 0.00 0.00 0.00 0.00 0.00 0.00 0.00 0.00 0.00 0.00 0.00 0.00 0.00 0.00 0.00 0.00 0.00 0.00 0.00 0.00 0.00 0.00 0.00
0.10 0.09 0.09 0.10 0.07 0.04 0.02 0.01 0.01 0.01 0.01 0.00 0.00 0.00 0.01 0.01 0.00 0.00 0.00 0.00 0.00 0.00 0.00 0.00 0.00 0.00 0.00 0.00 0.00 0.00 0.00 0.00 0.00 0.00 0.00 0.00 0.00 0.00 0.00 0.00 0.00 0.00 0.00 0.00 0.00 0.00 0.00 0.00 0.00
0.10 0.07 0.05 0.06 0.05 0.03 0.01 0.01 0.00 0.01 0.01 0.00 0.00 0.00 0.01 0.01 0.00 0.00 0.00 0.00 0.00 0.00 0.00 0.00 0.00 0.00 0.00 0.00 0.00 0.00 0.00 0.00 0.00 0.00 0.00 0.00 0.00 0.00 0.00 0.00 0.00 0.00 0.00 0.00 0.00 0.00 0.00 0.00 0.00
0.08 0.06 0.04 0.03 0.04 0.02 0.01 0.00 0.00 0.00 0.00 0.00 0.00 0.00 0.00 0.00 0.00 0.00 0.00 0.00 0.00 0.00 0.00 0.00 0.00 0.00 0.00 0.00 0.00 0.00 0.00 0.00 0.00 0.00 0.00 0.00 0.00 0.00 0.00 0.00 0.00 0.00 0.00 0.00 0.00 0.00 0.00 0.00 0.00
0.06 0.06 0.03 0.03 0.03 0.02 0.01 0.00 0.00 0.00 0.00 0.00 0.00 0.01 0.00 0.00 0.00 0.00 0.00 0.00 0.00 0.00 0.00 0.00 0.00 0.00 0.00 0.00 0.00 0.00 0.00 0.00 0.00 0.00 0.00 0.00 0.00 0.00 0.00 0.00 0.00 0.00 0.00 0.00 0.00 0.00 0.00 0.00 0.00
0.04 0.04 0.02 0.01 0.01 0.01 0.01 0.00 0.00 0.00 0.00 0.00 0.00 0.00 0.00 0.00 0.00 0.00 0.00 0.00 0.00 0.00 0.00 0.00 0.00 0.00 0.00 0.00 0.00 0.00 0.00 0.00 0.00 0.00 0.00 0.00 0.00 0.00 0.00 0.00 0.00 0.00 0.00 0.00 0.00 0.00 0.00 0.00 0.00
0.02 0.01 0.01 0.00 0.00 0.00 0.00 0.00 0.00 0.00 0.00 0.00 0.00 0.00 0.00 0.00 0.00 0.00 0.00 0.00 0.00 0.00 0.00 0.00 0.00 0.00 0.00 0.00 0.00 0.00 0.00 0.00 0.00 0.00 0.00 0.00 0.00 0.00 0.00 0.00 0.00 0.00 0.00 0.00 0.00 0.00 0.00 0.00 0.00
MSLP
1010.75 1011.50 1012.41 1013.39 1014.31 1015.07 1015.60 1015.87 1015.93 1015.81 1015.60 1015.39 1015.22 1015.13 1015.09 1015.07 1015.01 1014.87 1014.63 1014.28 1013.88 1013.47 1013.14 1012.93 1012.87 1012.96 1013.15 1013.39 1013.62 1013.79 1013.90 1013.94 1013.95 1013.96 1014.02 1014.14 1014.30 1014.49 1014.66 1014.78 1014.84 1014.83 1014.77 1014.71 1014.66 1014.64 1014.66 1014.70 1014.73
1011.22 1012.08 1013.07 1014.04 1014.89 1015.52 1015.87 1015.95 1015.79 1015.48 1015.12 1014.80 1014.57 1014.46 1014.45 1014.49 1014.51 1014.45 1014.29 1014.03 1013.70 1013.37 1013.11 1012.97 1012.97 1013.10 1013.33 1013.59 1013.84 1014.02 1014.13 1014.18 1014.19 1014.20 1014.26 1014.36 1014.50 1014.66 1014.80 1014.88 1014.91 1014.87 1014.80 1014.72 1014.67 1014.65 1014.66 1014.70 1014.72
1011.80 1012.74 1013.73 1014.66 1015.39 1015.86 1016.02 1015.89 1015.55 1015.08 1014.60 1014.21 1013.96 1013.87 1013.91 1014.01 1014.10 1014.12 1014.04 1013.85 1013.60 1013.34 1013.15 1013.06 1013.12 1013.30 1013.56 1013.84 1014.10 1014.29 1014.39 1014.43 1014.44 1014.44 1014.47 1014.54 1014.65 1014.76 1014.85 1014.90 1014.89 1014.83 1014.75 1014.68 1014.63 1014.62 1014.65 1014.68 1014.72
1012.44 1013.41 1014.37 1015.20 1015.80 1016.09 1016.07 1015.77 1015.28 1014.70 1014.16 1013.74 1013.51 1013.46 1013.56 1013.73 1013.89 1013.98 1013.97 1013.84 1013.65 1013.45 1013.32 1013.28 1013.38 1013.58 1013.86 1014.15 1014.41 1014.59 1014.68 1014.70 1014.69 1014.67 1014.67 1014.70 1014.76 1014.83 1014.87 1014.88 1014.84 1014.78 1014.70 1014.64 1014.61 1014.62 1014.66 1014.71 1014.75
1013.10 1014.05 1014.94 1015.65 1016.10 1016.23 1016.06 1015.64 1015.05 1014.43 1013.88 1013.50 1013.31 1013.33 1013.49 1013.72 1013.94 1014.08 1014.11 1014.03 1013.88 1013.73 1013.63 1013.64 1013.75 1013.97 1014.24 1014.52 1014.75 1014.91 1014.98 1014.98 1014.94 1014.89 1014.86 1014.86 1014.88 1014.90 1014.91 1014.88 1014.83 1014.75 1014.69 1014.65 1014.64 1014.68 1014.74 1014.80 1014.84
1013.70 1014.60 1015.39 1015.97 1016.28 1016.29 1016.02 1015.53 1014.92 1014.32 1013.82 1013.50 1013.39 1013.48 1013.70 1013.97 1014.23 1014.39 1014.45 1014.39 1014.28 1014.16 1014.09 1014.11 1014.23 1014.44 1014.69 1014.93 1015.12 1015.24 1015.27 1015.25 1015.18 1015.12 1015.07 1015.04 1015.03 1015.03 1015.00 1014.95 1014.88 1014.81 1014.75 1014.73 1014.75 1014.81 1014.88 1014.94 1014.96
1014.20 1015.01 1015.68 1016.14 1016.33 1016.26 1015.94 1015.45 1014.89 1014.36 1013.96 1013.74 1013.72 1013.86 1014.12 1014.42 1014.68 1014.85 1014.91 1014.87 1014.77 1014.67 1014.61 1014.64 1014.76 1014.94 1015.15 1015.34 1015.48 1015.55 1015.55 1015.50 1015.42 1015.35 1015.29 1015.26 1015.24 1015.21 1015.17 1015.10 1015.02 1014.94 1014.89 1014.88 1014.91 1014.97 1015.04 1015.10 1015.11
1014.56 1015.26 1015.82 1016.16 1016.27 1016.15 1015.84 1015.40 1014.94 1014.52 1014.24 1014.13 1014.18 1014.38 1014.66 1014.95 1015.19 1015.34 1015.38 1015.34 1015.25 1015.17 1015.13 1015.16 1015.27 1015.42 1015.59 1015.73 1015.81 1015.83 1015.80 1015.72 1015.64 1015.58 1015.53 1015.51 1015.49 1015.46 1015.41 1015.32 1015.22 1015.13 1015.07 1015.05 1015.08 1015.14 1015.20 1015.23 1015.22
1014.78 1015.37 1015.81 1016.06 1016.11 1015.98 1015.71 1015.37 1015.02 1014.74 1014.58 1014.57 1014.69 1014.91 1015.18 1015.44 1015.64 1015.75 1015.77 1015.72 1015.64 1015.58 1015.56 1015.60 1015.70 1015.83 1015.96 1016.05 1016.08 1016.06 1016.00 1015.92 1015.85 1015.80 1015.78 1015.78 1015.77 1015.75 1015.68 1015.58 1015.47 1015.35 1015.26 1015.22 1015.23 1015.27 1015.31 1015.32 1015.29
1014.91 1015.38 1015.71 1015.87 1015.88 1015.76 1015.56 1015.32 1015.10 1014.95 1014.90 1014.97 1015.13 1015.35 1015.59 1015.79 1015.94 1016.00 1015.99 1015.94 1015.88 1015.84 1015.85 1015.92 1016.02 1016.14 1016.24 1016.30 1016.30 1016.25 1016.17 1016.09 1016.04 1016.02 1016.03 1016.05 1016.06 1016.04 1015.98 1015.86 1015.71 1015.55 1015.43 1015.35 1015.32 1015.34 1015.36 1015.35 1015.30
1014.98 1015.34 1015.56 1015.66 1015.64 1015.54 1015.40 1015.25 1015.15 1015.11 1015.15 1015.27 1015.44 1015.64 1015.82 1015.97 1016.05 1016.06 1016.03 1015.98 1015.95 1015.95 1016.00 1016.10 1016.23 1016.35 1016.44 1016.48 1016.46 1016.40 1016.32 1016.26 1016.22 1016.23 1016.27 1016.32 1016.35 1016.34 1016.26 1016.12 1015.93 1015.74 1015.57 1015.44 1015.38 1015.36 1015.36 1015.34 1015.28
1015.06 1015.31 1015.44 1015.47 1015.42 1015.34 1015.25 1015.19 1015.17 1015.21 1015.31 1015.45 1015.61 1015.77 1015.89 1015.97 1016.00 1015.97 1015.93 1015.89 1015.89 1015.93 1016.03 1016.17 1016.33 1016.48 1016.58 1016.62 1016.60 1016.55 1016.48 1016.43 1016.41 1016.45 1016.51 1016.58 1016.63 1016.61 1016.52 1016.36 1016.14 1015.90 1015.69 1015.52 1015.41 1015.36 1015.34 1015.32 1015.27
1015.20 1015.35 1015.39 1015.36 1015.28 1015.20 1015.15 1015.14 1015.17 1015.26 1015.38 1015.52 1015.66 1015.77 1015.84 1015.86 1015.85 1015.80 1015.75 1015.73 1015.76 1015.85 1016.00 1016.19 1016.39 1016.56 1016.69 1016.75 1016.75 1016.71 1016.66 1016.63 1016.63 1016.68 1016.76 1016.84 1016.89 1016.87 1016.77 1016.59 1016.34 1016.07 1015.82 1015.61 1015.47 1015.39 1015.36 1015.34 1015.31
1015.42 1015.48 1015.44 1015.35 1015.25 1015.16 1015.12 1015.13 1015.18 1015.28 1015.40 1015.52 1015.62 1015.70 1015.73 1015.72 1015.67 1015.62 1015.58 1015.58 1015.64 1015.77 1015.96 1016.19 1016.43 1016.64 1016.80 1016.90 1016.93 1016.92 1016.89 1016.88 1016.90 1016.95 1017.04 1017.11 1017.15 1017.13 1017.02 1016.82 1016.56 1016.27 1015.99 1015.76 1015.59 1015.49 1015.45 1015.44 1015.42
1015.71 1015.69 1015.59 1015.46 1015.33 1015.24 1015.19 1015.20 1015.24 1015.32 1015.41 1015.50 1015.57 1015.61 1015.62 1015.59 1015.55 1015.50 1015.48 1015.50 1015.59 1015.74 1015.96 1016.22 1016.49 1016.74 1016.94 1017.08 1017.16 1017.18 1017.19 1017.19 1017.22 1017.27 1017.33 1017.39 1017.42 1017.38 1017.27 1017.07 1016.81 1016.51 1016.23 1015.98 1015.80 1015.68 1015.63 1015.62 1015.63
1016.03 1015.96 1015.83 1015.67 1015.53 1015.43 1015.37 1015.36 1015.38 1015.41 1015.46 1015.50 1015.53 1015.55 1015.54 1015.52 1015.49 1015.46 1015.46 1015.51 1015.61 1015.77 1016.00 1016.28 1016.57 1016.85 1017.10 1017.29 1017.42 1017.50 1017.53 1017.55 1017.58 1017.61 1017.65 1017.68 1017.69 1017.64 1017.52 1017.33 1017.08 1016.80 1016.52 1016.28 1016.09 1015.97 1015.91 1015.90 1015.92
1016.34 1016.25 1016.12 1015.97 1015.84 1015.75 1015.68 1015.63 1015.60 1015.57 1015.55 1015.53 1015.52 1015.51 1015.50 1015.50 1015.49 1015.49 1015.52 1015.58 1015.69 1015.85 1016.08 1016.36 1016.66 1016.98 1017.27 1017.52 1017.71 1017.83 1017.91 1017.94 1017.96 1017.97 1017.97 1017.97 1017.94 1017.88 1017.76 1017.59 1017.36 1017.11 1016.86 1016.63 1016.44 1016.32 1016.26 1016.25 1016.27
1016.59 1016.52 1016.43 1016.34 1016.26 1016.18 1016.10 1016.01 1015.91 1015.80 1015.69 1015.59 1015.52 1015.48 1015.47 1015.48 1015.51 1015.55 1015.60 1015.67 1015.78 1015.94 1016.16 1016.43 1016.75 1017.10 1017.43 1017.74 1017.99 1018.17 1018.28 1018.33 1018.34 1018.32 1018.28 1018.24 1018.17 1018.09 1017.98 1017.83 1017.64 1017.43 1017.21 1017.01 1016.84 1016.72 1016.65 1016.64 1016.66
1016.75 1016.76 1016.76 1016.76 1016.75 1016.72 1016.63 1016.49 1016.30 1016.08 1015.85 1015.66 1015.51 1015.43 1015.41 1015.44 1015.49 1015.57 1015.65 1015.74 1015.85 1016.00 1016.21 1016.48 1016.81 1017.18 1017.56 1017.92 1018.23 1018.47 1018.62 1018.68 1018.68 1018.63 1018.56 1018.47 1018.37 1018.27 1018.16 1018.04 1017.89 1017.73 1017.55 1017.38 1017.23 1017.12 1017.05 1017.03 1017.05
1016.81 1016.94 1017.09 1017.22 1017.32 1017.33 1017.24 1017.04 1016.75 1016.39 1016.03 1015.70 1015.46 1015.32 1015.28 1015.31 1015.40 1015.51 1015.63 1015.74 1015.86 1016.01 1016.21 1016.47 1016.81 1017.21 1017.63 1018.05 1018.42 1018.71 1018.90 1018.98 1018.97 1018.89 1018.78 1018.65 1018.53 1018.42 1018.32 1018.22 1018.12 1018.00 1017.87 1017.74 1017.62 1017.51 1017.44 1017.42 1017.44
1016.80 1017.10 1017.42 1017.72 1017.93 1018.00 1017.90 1017.63 1017.21 1016.70 1016.17 1015.71 1015.35 1015.14 1015.06 1015.10 1015.22 1015.37 1015.52 1015.67 1015.80 1015.96 1016.16 1016.42 1016.77 1017.19 1017.65 1018.11 1018.53 1018.87 1019.09 1019.20 1019.19 1019.09 1018.95 1018.80 1018.66 1018.54 1018.45 1018.39 1018.32 1018.26 1018.17 1018.08 1017.97 1017.88 1017.81 1017.78 1017.80
1016.75 1017.24 1017.75 1018.21 1018.54 1018.67 1018.55 1018.19 1017.64 1016.97 1016.28 1015.66 1015.18 1014.89 1014.77 1014.81 1014.96 1015.15 1015.35 1015.53 1015.70 1015.87 1016.07 1016.34 1016.69 1017.13 1017.61 1018.11 1018.57 1018.95 1019.21 1019.33 1019.33 1019.23 1019.08 1018.92 1018.77 1018.65 1018.58 1018.55 1018.53 1018.50 1018.46 1018.39 1018.31 1018.23 1018.16 1018.12 1018.13
1016.71 1017.38 1018.08 1018.69 1019.11 1019.27 1019.13 1018.68 1018.00 1017.17 1016.32 1015.56 1014.98 1014.61 1014.46 1014.50 1014.68 1014.91 1015.16 1015.39 1015.58 1015.77 1015.98 1016.25 1016.60 1017.04 1017.53 1018.05 1018.54 1018.95 1019.24 1019.39 1019.40 1019.32 1019.17 1019.01 1018.87 1018.78 1018.73 1018.72 1018.74 1018.75 1018.74 1018.70 1018.64 1018.56 1018.48 1018.43 1018.43
1016.70 1017.53 1018.37 1019.10 1019.59 1019.76 1019.57 1019.04 1018.23 1017.28 1016.30 1015.43 1014.75 1014.33 1014.17 1014.22 1014.43 1014.71 1015.00 1015.26 1015.48 1015.68 1015.90 1016.16 1016.50 1016.93 1017.42 1017.94 1018.44 1018.87 1019.18 1019.36 1019.41 1019.35 1019.24 1019.10 1018.98 1018.91 1018.90 1018.92 1018.97 1019.01 1019.03 1019.01 1018.95 1018.87 1018.79 1018.73 1018.71
1016.73 1017.67 1018.60 1019.38 1019.90 1020.05 1019.81 1019.21 1018.32 1017.27 1016.20 1015.27 1014.55 1014.11 1013.95 1014.02 1014.26 1014.58 1014.90 1015.19 1015.43 1015.64 1015.84 1016.09 1016.40 1016.81 1017.28 1017.79 1018.29 1018.73 1019.06 1019.27 1019.36 1019.34 1019.27 1019.17 1019.09 1019.06 1019.07 1019.12 1019.20 1019.26 1019.30 1019.29 1019.24 1019.16 1019.08 1019.01 1018.98
1016.77 1017.75 1018.71 1019.50 1020.00 1020.11 1019.83 1019.16 1018.22 1017.13 1016.05 1015.10 1014.39 1013.96 1013.83 1013.93 1014.20 1014.54 1014.89 1015.19 1015.44 1015.63 1015.81 1016.03 1016.31 1016.67 1017.11 1017.60 1018.08 1018.52 1018.88 1019.12 1019.25 1019.28 1019.26 1019.21 1019.18 1019.18 1019.22 1019.30 1019.40 1019.48 1019.53 1019.54 1019.50 1019.42 1019.34 1019.26 1019.22
1016.79 1017.75 1018.68 1019.41 1019.85 1019.91 1019.58 1018.90 1017.95 1016.88 1015.83 1014.93 1014.27 1013.90 1013.81 1013.95 1014.24 1014.61 1014.96 1015.25 1015.48 1015.65 1015.80 1015.97 1016.21 1016.53 1016.92 1017.37 1017.84 1018.27 1018.64 1018.91 1019.08 1019.16 1019.19 1019.20 1019.21 1019.25 1019.32 1019.43 1019.53 1019.63 1019.70 1019.72 1019.69 1019.63 1019.56 1019.49 1019.45
1016.74 1017.63 1018.46 1019.11 1019.46 1019.46 1019.10 1018.42 1017.52 1016.52 1015.56 1014.76 1014.20 1013.91 1013.88 1014.06 1014.37 1014.73 1015.07 1015.35 1015.54 1015.68 1015.79 1015.91 1016.10 1016.37 1016.72 1017.14 1017.57 1018.00 1018.37 1018.66 1018.87 1018.99 1019.07 1019.12 1019.17 1019.24 1019.34 1019.46 1019.58 1019.69 1019.77 1019.81 1019.81 1019.77 1019.73 1019.68 1019.65
1016.59 1017.36 1018.06 1018.58 1018.84 1018.78 1018.40 1017.76 1016.95 1016.07 1015.25 1014.59 1014.16 1013.97 1014.01 1014.22 1014.54 1014.89 1015.20 1015.44 1015.59 1015.69 1015.76 1015.85 1016.00 1016.23 1016.54 1016.91 1017.32 1017.72 1018.09 1018.39 1018.62 1018.78 1018.89 1018.97 1019.05 1019.14 1019.25 1019.38 1019.51 1019.63 1019.73 1019.79 1019.83 1019.83 1019.83 1019.82 1019.82
1016.32 1016.95 1017.51 1017.89 1018.04 1017.93 1017.56 1016.98 1016.29 1015.56 1014.91 1014.41 1014.12 1014.03 1014.14 1014.38 1014.70 1015.02 1015.30 1015.50 1015.62 1015.69 1015.73 1015.79 1015.91 1016.11 1016.39 1016.73 1017.10 1017.48 1017.83 1018.13 1018.36 1018.53 1018.66 1018.76 1018.86 1018.96 1019.08 1019.21 1019.34 1019.47 1019.59 1019.68 1019.76 1019.81 1019.86 1019.90 1019.94
Thickness
5786 5786 5785 5774 5753 5737 5733 5741 5748 5750 5754 5761 5765 5763 5757 5752 5749 5744 5762 5771 5771 5771 5770 5769 5768 5767 5765 5763 5762 5760 5758 5757 5755 5753 5752 5750 5749 5748 5747 5746 5745 5744 5743 5742 5742 5742 5742 5742 5742
5785 5784 5775 5760 5739 5724 5731 5744 5747 5753 5760 5764 5765 5763 5757 5754 5759 5760 5764 5769 5770 5769 5768 5767 5766 5764 5762 5761 5759 5757 5756 5754 5752 5751 5749 5747 5746 5745 5744 5743 5742 5741 5740 5740 5739 5739 5739 5739 5739
5783 5780 5762 5748 5736 5728 5734 5746 5750 5759 5765 5764 5759 5759 5756 5753 5759 5762 5766 5768 5768 5766 5765 5764 5763 5761 5760 5758 5757 5755 5753 5751 5750 5748 5746 5745 5743 5742 5741 5740 5739 5738 5737 5737 5736 5736 5736 5736 5736
5775 5765 5755 5740 5734 5740 5745 5750 5755 5757 5761 5763 5759 5752 5755 5763 5764 5765 5767 5767 5765 5764 5762 5761 5760 5758 5757 5755 5754 5752 5750 5748 5747 5745 5744 5742 5741 5740 5739 5738 5737 5736 5735 5734 5734 5733 5733 5733 5733
5767 5752 5739 5731 5735 5745 5752 5755 5758 5755 5754 5757 5756 5747 5748 5760 5767 5767 5766 5765 5762 5761 5760 5759 5757 5756 5754 5752 5751 5749 5747 5745 5744 5742 5741 5740 5739 5738 5737 5735 5734 5733 5732 5732 5731 5731 5731 5731 5731
5751 5743 5727 5723 5733 5745 5752 5757 5756 5753 5752 5755 5753 5746 5746 5758 5762 5763 5763 5762 5760 5759 5757 5756 5755 5753 5751 5749 5748 5746 5744 5743 5741 5740 5739 5738 5737 5736 5734 5733 5732 5731 5730 5729 5729 5729 5729 5729 5729
5743 5733 5726 5727 5730 5739 5750 5758 5754 5751 5750 5753 5755 5744 5745 5753 5759 5761 5760 5759 5757 5756 5754 5753 5751 5750 5748 5746 5745 5743 5742 5741 5739 5738 5737 5735 5734 5733 5732 5731 5730 5729 5728 5727 5727 5727 5727 5727 5727
5746 5734 5727 5726 5729 5736 5751 5756 5756 5753 5751 5761 5759 5744 5742 5753 5759 5758 5756 5755 5754 5753 5751 5750 5748 5747 5745 5744 5742 5741 5740 5738 5737 5736 5734 5733 5732 5731 5730 5729 5727 5726 5726 5725 5725 5724 5724 5724 5725
5748 5727 5719 5726 5731 5738 5750 5751 5755 5759 5755 5756 5757 5755 5757 5759 5757 5753 5750 5749 5749 5749 5749 5747 5746 5744 5743 5741 5740 5739 5737 5736 5735 5734 5732 5731 5730 5729 5727 5726 5725 5724 5723 5722 5722 5722 5722 5722 5722
5736 5720 5728 5739 5742 5743 5748 5751 5752 5751 5746 5746 5749 5754 5757 5755 5752 5748 5746 5745 5745 5745 5746 5745 5744 5742 5740 5739 5738 5737 5735 5734 5733 5731 5730 5729 5727 5726 5725 5723 5722 5721 5720 5719 5719 5718 5718 5718 5718
5734 5727 5736 5742 5747 5748 5748 5750 5755 5746 5739 5744 5746 5748 5751 5750 5748 5746 5745 5745 5745 5745 5745 5745 5743 5741 5739 5737 5736 5735 5733 5732 5731 5729 5728 5727 5725 5723 5722 5720 5719 5718 5717 5716 5715 5714 5714 5714 5714
5730 5734 5738 5741 5747 5748 5747 5749 5748 5748 5748 5755 5754 5753 5750 5746 5745 5744 5744 5744 5744 5744 5744 5744 5743 5740 5738 5736 5734 5733 5731 5729 5728 5727 5726 5724 5722 5720 5718 5717 5715 5714 5713 5712 5711 5710 5710 5710 5710
5726 5730 5738 5742 5745 5746 5748 5746 5745 5746 5753 5755 5753 5750 5747 5745 5745 5746 5746 5745 5744 5743 5743 5743 5742 5739 5737 5735 5733 5731 5729 5727 5726 5725 5723 5722 5720 5718 5716 5714 5713 5711 5710 5709 5708 5707 5706 5706 5707
5725 5728 5732 5736 5740 5744 5742 5741 5742 5742 5751 5750 5747 5745 5745 5744 5744 5744 5743 5743 5743 5742 5742 5741 5740 5738 5736 5734 5731 5729 5727 5726 5724 5723 5721 5720 5718 5716 5714 5712 5710 5708 5707 5706 5705 5703 5703 5702 5703
5725 5721 5723 5728 5733 5737 5739 5730 5734 5743 5746 5743 5743 5743 5743 5743 5744 5743 5744 5744 5743 5742 5741 5740 5739 5736 5734 5732 5730 5727 5725 5724 5722 5720 5719 5718 5716 5714 5711 5709 5707 5706 5704 5703 5702 5701 5700 5699 5699
5714 5709 5705 5719 5728 5733 5729 5715 5732 5741 5741 5736 5737 5739 5739 5741 5743 5744 5745 5745 5744 5742 5740 5739 5739 5735 5732 5730 5728 5726 5723 5722 5720 5718 5717 5716 5714 5712 5709 5707 5705 5703 5702 5700 5699 5697 5695 5694 5694
5696 5692 5697 5710 5724 5726 5722 5715 5728 5737 5737 5733 5734 5735 5736 5738 5741 5743 5745 5745 5743 5741 5739 5737 5735 5733 5730 5728 5726 5724 5722 5720 5718 5716 5715 5713 5712 5710 5708 5705 5703 5701 5699 5697 5696 5693 5691 5690 5690
5684 5690 5696 5702 5715 5719 5714 5715 5725 5732 5733 5731 5732 5732 5734 5735 5738 5742 5744 5744 5742 5740 5738 5735 5733 5731 5729 5726 5724 5721 5719 5718 5716 5714 5713 5711 5710 5708 5706 5703 5701 5699 5697 5694 5692 5690 5689 5688 5687
5693 5691 5693 5701 5715 5713 5710 5712 5719 5726 5728 5728 5729 5730 5732 5735 5740 5742 5743 5742 5740 5738 5736 5734 5732 5729 5727 5724 5721 5718 5716 5715 5714 5713 5712 5710 5708 5706 5704 5702 5699 5697 5694 5691 5690 5689 5687 5685 5685
5691 5687 5689 5699 5710 5709 5705 5708 5717 5723 5726 5729 5729 5730 5732 5734 5737 5739 5740 5739 5738 5736 5735 5733 5731 5729 5727 5724 5721 5719 5716 5714 5713 5712 5711 5709 5707 5705 5703 5701 5698 5695 5693 5691 5689 5687 5684 5683 5683
5687 5685 5688 5692 5700 5705 5703 5701 5711 5720 5727 5730 5732 5733 5734 5735 5735 5736 5737 5737 5736 5735 5734 5734 5731 5729 5727 5724 5722 5719 5716 5714 5712 5711 5709 5708 5707 5705 5702 5700 5697 5694 5692 5689 5687 5686 5683 5680 5680
5679 5694 5695 5693 5687 5683 5695 5681 5703 5712 5718 5724 5727 5729 5732 5736 5736 5736 5736 5735 5735 5735 5735 5733 5731 5729 5727 5724 5722 5719 5714 5711 5710 5709 5708 5708 5706 5704 5702 5700 5697 5695 5692 5689 5687 5685 5683 5681 5678
5686 5695 5693 5690 5684 5680 5687 5681 5692 5708 5710 5718 5724 5728 5731 5735 5735 5735 5736 5736 5736 5736 5735 5733 5731 5728 5726 5724 5722 5719 5715 5713 5711 5710 5709 5707 5706 5704 5703 5700 5698 5695 5692 5690 5688 5685 5683 5681 5678
5691 5686 5683 5679 5676 5668 5681 5679 5687 5701 5713 5720 5725 5728 5731 5733 5734 5734 5735 5734 5734 5734 5733 5731 5729 5727 5726 5724 5722 5720 5716 5713 5711 5709 5707 5706 5705 5704 5703 5701 5698 5696 5693 5691 5688 5686 5684 5681 5679
5685 5672 5659 5657 5657 5664 5683 5682 5692 5716 5724 5727 5727 5728 5729 5731 5731 5730 5730 5730 5730 5731 5731 5730 5728 5726 5725 5723 5721 5720 5717 5714 5712 5709 5707 5706 5704 5703 5702 5701 5699 5696 5694 5692 5690 5687 5685 5683 5680
5679 5677 5662 5654 5654 5664 5679 5680 5703 5723 5729 5731 5731 5730 5729 5728 5729 5729 5729 5729 5729 5729 5729 5728 5727 5725 5724 5723 5721 5720 5718 5715 5713 5711 5709 5707 5705 5704 5703 5701 5699 5697 5695 5693 5690 5688 5685 5684 5682
5676 5675 5681 5669 5666 5664 5672 5689 5709 5720 5723 5725 5726 5726 5726 5728 5728 5728 5728 5728 5728 5727 5727 5727 5726 5724 5723 5722 5720 5719 5717 5715 5713 5711 5710 5708 5706 5705 5703 5702 5699 5697 5695 5693 5691 5688 5685 5684 5682
5688 5682 5672 5666 5658 5658 5674 5684 5696 5711 5716 5721 5722 5724 5725 5727 5727 5727 5726 5726 5726 5727 5726 5726 5725 5724 5722 5721 5720 5718 5716 5715 5713 5711 5709 5708 5707 5705 5704 5702 5699 5697 5695 5693 5690 5688 5686 5683 5682
5680 5679 5676 5669 5672 5663 5664 5686 5722 5725 5728 5727 5727 5727 5726 5726 5725 5725 5724 5724 5725 5725 5724 5723 5722 5721 5720 5718 5717 5716 5714 5713 5712 5710 5708 5707 5706 5705 5703 5701 5699 5696 5694 5692 5689 5687 5685 5683 5681
5693 5687 5680 5672 5672 5673 5673 5693 5735 5734 5735 5733 5730 5728 5727 5726 5724 5723 5723 5722 5722 5722 5721 5720 5720 5719 5718 5717 5715 5714 5712 5711 5709 5708 5707 5706 5705 5704 5702 5700 5697 5695 5693 5691 5688 5686 5684 5682 5680